Year,Month,Day,Hour,Minute,Value (Times are PST for temperature in C)
2007,05,19,00,00,9.40
2007,05,19,00,01,9.40
2007,05,19,00,02,9.40
2007,05,19,00,03,9.30
2007,05,19,00,04,9.30
2007,05,19,00,05,9.30
2007,05,19,00,06,9.30
2007,05,19,00,07,9.30
2007,05,19,00,08,9.20
2007,05,19,00,09,9.20
2007,05,19,00,10,9.20
2007,05,19,00,11,9.20
2007,05,19,00,12,9.20
2007,05,19,01,02,8.40
2007,05,19,01,03,8.40
2007,05,19,01,04,8.40
2007,05,19,01,05,8.50
2007,05,19,01,06,8.40
2007,05,19,01,07,8.40
2007,05,19,01,08,8.40
2007,05,19,01,09,8.40
2007,05,19,01,10,8.40
2007,05,19,01,11,8.40
2007,05,19,01,12,8.40
2007,05,19,01,13,8.40
2007,05,19,01,14,8.40
2007,05,19,01,15,8.40
2007,05,19,01,16,8.40
2007,05,19,01,17,8.40
2007,05,19,01,18,8.40
2007,05,19,01,19,8.40
2007,05,19,01,20,8.40
2007,05,19,01,21,8.40
2007,05,19,01,22,8.40
2007,05,19,01,23,8.40
2007,05,19,01,24,8.40
2007,05,19,01,25,8.40
2007,05,19,01,26,8.40
2007,05,19,01,27,8.40
2007,05,19,01,28,8.40
2007,05,19,01,29,8.40
2007,05,19,01,30,8.30
2007,05,19,01,31,8.30
2007,05,19,01,32,8.30
2007,05,19,01,33,8.30
2007,05,19,01,34,8.30
2007,05,19,01,35,8.30
2007,05,19,01,36,8.30
2007,05,19,01,37,8.30
2007,05,19,01,38,8.30
2007,05,19,01,39,8.30
2007,05,19,01,40,8.30
2007,05,19,01,41,8.20
2007,05,19,01,42,8.20
2007,05,19,01,43,8.20
2007,05,19,01,44,8.20
2007,05,19,01,45,8.20
2007,05,19,01,46,8.20
2007,05,19,01,47,8.20
2007,05,19,01,48,8.20
2007,05,19,01,49,8.10
2007,05,19,01,50,8.10
2007,05,19,01,51,8.10
2007,05,19,01,52,8.10
2007,05,19,01,53,8.10
2007,05,19,01,54,8.10
2007,05,19,01,55,8.10
2007,05,19,01,56,8.10
2007,05,19,01,57,8.10
2007,05,19,01,58,8.00
2007,05,19,01,59,8.00
2007,05,19,02,00,8.00
2007,05,19,02,01,7.90
2007,05,19,02,02,7.90
2007,05,19,02,03,7.90
2007,05,19,02,04,7.90
2007,05,19,02,05,7.90
2007,05,19,02,06,7.80
2007,05,19,02,07,7.80
2007,05,19,02,08,7.80
2007,05,19,02,09,7.80
2007,05,19,02,10,7.80
2007,05,19,02,11,7.80
2007,05,19,02,12,7.80
2007,05,19,02,13,7.80
2007,05,19,02,14,7.70
2007,05,19,02,15,7.70
2007,05,19,02,16,7.70
2007,05,19,02,17,7.70
2007,05,19,02,18,7.70
2007,05,19,02,19,7.70
2007,05,19,02,20,7.60
2007,05,19,02,21,7.60
2007,05,19,02,22,7.60
2007,05,19,02,23,7.60
2007,05,19,02,24,7.60
2007,05,19,02,25,7.60
2007,05,19,02,26,7.60
2007,05,19,02,27,7.60
2007,05,19,02,28,7.60
2007,05,19,02,29,7.60
2007,05,19,02,30,7.60
2007,05,19,02,31,7.60
2007,05,19,02,32,7.60
2007,05,19,02,33,7.60
2007,05,19,02,34,7.60
2007,05,19,02,35,7.60
2007,05,19,02,36,7.60
2007,05,19,02,37,7.50
2007,05,19,02,38,7.50
2007,05,19,02,39,7.50
2007,05,19,02,40,7.50
2007,05,19,02,41,7.50
2007,05,19,02,42,7.50
2007,05,19,02,43,7.50
2007,05,19,02,44,7.50
2007,05,19,02,45,7.40
2007,05,19,02,46,7.40
2007,05,19,02,47,7.50
2007,05,19,02,48,7.50
2007,05,19,02,49,7.50
2007,05,19,02,50,7.50
2007,05,19,02,51,7.50
2007,05,19,02,52,7.50
2007,05,19,02,53,7.50
2007,05,19,02,54,7.50
2007,05,19,02,55,7.50
2007,05,19,02,56,7.50
2007,05,19,02,57,7.50
2007,05,19,02,58,7.50
2007,05,19,02,59,7.50
2007,05,19,03,00,7.50
2007,05,19,03,01,7.50
2007,05,19,03,02,7.50
2007,05,19,03,03,7.50
2007,05,19,03,04,7.50
2007,05,19,03,05,7.50
2007,05,19,03,06,7.50
2007,05,19,03,07,7.50
2007,05,19,03,08,7.60
2007,05,19,03,09,7.60
2007,05,19,03,10,7.60
2007,05,19,03,11,7.70
2007,05,19,03,12,7.70
2007,05,19,03,13,7.80
2007,05,19,03,14,7.80
2007,05,19,03,15,7.80
2007,05,19,03,16,7.80
2007,05,19,03,17,7.90
2007,05,19,03,18,7.90
2007,05,19,03,19,7.90
2007,05,19,03,20,7.90
2007,05,19,03,21,7.90
2007,05,19,03,22,7.90
2007,05,19,03,23,7.90
2007,05,19,03,24,7.90
2007,05,19,03,25,7.90
2007,05,19,03,26,7.90
2007,05,19,03,27,7.90
2007,05,19,03,28,7.90
2007,05,19,03,29,8.00
2007,05,19,03,30,8.00
2007,05,19,03,31,8.00
2007,05,19,03,32,8.00
2007,05,19,03,33,8.00
2007,05,19,03,34,8.00
2007,05,19,03,35,8.00
2007,05,19,03,36,8.10
2007,05,19,03,37,8.10
2007,05,19,03,38,8.10
2007,05,19,03,39,8.10
2007,05,19,03,40,8.10
2007,05,19,03,41,8.10
2007,05,19,03,42,8.20
2007,05,19,03,43,8.20
2007,05,19,03,44,8.20
2007,05,19,03,45,8.20
2007,05,19,03,46,8.20
2007,05,19,03,47,8.20
2007,05,19,03,48,8.20
2007,05,19,03,49,8.20
2007,05,19,03,50,8.20
2007,05,19,03,51,8.30
2007,05,19,03,52,8.30
2007,05,19,03,53,8.30
2007,05,19,03,54,8.30
2007,05,19,03,55,8.30
2007,05,19,03,56,8.30
2007,05,19,03,57,8.30
2007,05,19,03,58,8.30
2007,05,19,03,59,8.30
2007,05,19,04,00,8.30
2007,05,19,04,01,8.30
2007,05,19,04,02,8.30
2007,05,19,04,03,8.30
2007,05,19,04,04,8.30
2007,05,19,04,05,8.30
2007,05,19,04,06,8.40
2007,05,19,04,07,8.40
2007,05,19,04,08,8.40
2007,05,19,04,09,8.40
2007,05,19,04,10,8.40
2007,05,19,04,11,8.40
2007,05,19,04,12,8.40
2007,05,19,04,13,8.40
2007,05,19,04,14,8.40
2007,05,19,04,15,8.40
2007,05,19,04,16,8.40
2007,05,19,04,17,8.40
2007,05,19,04,18,8.50
2007,05,19,04,19,8.50
2007,05,19,04,20,8.50
2007,05,19,04,21,8.50
2007,05,19,04,22,8.50
2007,05,19,04,23,8.60
2007,05,19,04,24,8.60
2007,05,19,04,25,8.60
2007,05,19,04,26,8.60
2007,05,19,04,27,8.60
2007,05,19,04,28,8.60
2007,05,19,04,29,8.60
2007,05,19,04,30,8.50
2007,05,19,04,31,8.60
2007,05,19,04,32,8.60
2007,05,19,04,33,8.60
2007,05,19,04,34,8.60
2007,05,19,04,35,8.60
2007,05,19,04,36,8.60
2007,05,19,04,37,8.60
2007,05,19,04,38,8.60
2007,05,19,04,39,8.60
2007,05,19,04,40,8.60
2007,05,19,04,41,8.60
2007,05,19,04,42,8.60
2007,05,19,04,43,8.60
2007,05,19,04,44,8.60
2007,05,19,04,45,8.60
2007,05,19,04,46,8.60
2007,05,19,04,47,8.60
2007,05,19,04,48,8.60
2007,05,19,04,49,8.60
2007,05,19,04,50,8.60
2007,05,19,04,51,8.70
2007,05,19,04,52,8.70
2007,05,19,04,53,8.70
2007,05,19,04,54,8.70
2007,05,19,04,55,8.70
2007,05,19,04,56,8.70
2007,05,19,04,57,8.70
2007,05,19,04,58,8.70
2007,05,19,04,59,8.70
2007,05,19,05,00,8.70
2007,05,19,05,01,8.70
2007,05,19,05,02,8.60
2007,05,19,05,03,8.60
2007,05,19,05,04,8.60
2007,05,19,05,05,8.60
2007,05,19,05,06,8.60
2007,05,19,05,07,8.60
2007,05,19,05,08,8.60
2007,05,19,05,09,8.60
2007,05,19,05,10,8.70
2007,05,19,05,11,8.70
2007,05,19,05,12,8.70
2007,05,19,05,13,8.70
2007,05,19,05,14,8.70
2007,05,19,05,15,8.70
2007,05,19,05,16,8.70
2007,05,19,05,17,8.70
2007,05,19,05,18,8.70
2007,05,19,05,19,8.70
2007,05,19,05,20,8.70
2007,05,19,05,21,8.70
2007,05,19,05,22,8.80
2007,05,19,05,23,8.80
2007,05,19,05,24,8.80
2007,05,19,05,25,8.80
2007,05,19,05,26,8.80
2007,05,19,05,27,8.80
2007,05,19,05,28,8.80
2007,05,19,05,29,8.80
2007,05,19,05,30,8.80
2007,05,19,05,31,8.80
2007,05,19,05,32,8.80
2007,05,19,05,33,8.80
2007,05,19,05,34,8.80
2007,05,19,05,35,8.80
2007,05,19,05,36,8.80
2007,05,19,05,37,8.80
2007,05,19,05,38,8.80
2007,05,19,05,39,8.80
2007,05,19,05,40,8.80
2007,05,19,05,41,8.80
2007,05,19,05,42,8.80
2007,05,19,05,43,8.80
2007,05,19,05,44,8.80
2007,05,19,05,45,8.80
2007,05,19,05,46,8.80
2007,05,19,05,47,8.80
2007,05,19,05,48,8.80
2007,05,19,05,49,8.80
2007,05,19,05,50,8.80
2007,05,19,05,51,8.80
2007,05,19,05,52,8.80
2007,05,19,05,53,8.80
2007,05,19,05,54,8.80
2007,05,19,05,55,8.70
2007,05,19,05,56,8.70
2007,05,19,05,57,8.70
2007,05,19,05,58,8.70
2007,05,19,05,59,8.70
2007,05,19,06,00,8.80
2007,05,19,06,01,8.80
2007,05,19,06,02,8.80
2007,05,19,06,03,8.70
2007,05,19,06,04,8.70
2007,05,19,06,05,8.70
2007,05,19,06,06,8.70
2007,05,19,06,07,8.70
2007,05,19,06,08,8.70
2007,05,19,06,09,8.70
2007,05,19,06,10,8.70
2007,05,19,06,11,8.70
2007,05,19,06,12,8.70
2007,05,19,06,13,8.70
2007,05,19,06,14,8.70
2007,05,19,06,15,8.70
2007,05,19,06,16,8.80
2007,05,19,06,17,8.80
2007,05,19,06,18,8.80
2007,05,19,06,19,8.80
2007,05,19,06,20,8.80
2007,05,19,06,21,8.80
2007,05,19,06,22,8.80
2007,05,19,06,23,8.80
2007,05,19,06,24,8.80
2007,05,19,06,25,8.80
2007,05,19,06,26,8.90
2007,05,19,06,27,8.90
2007,05,19,06,28,8.90
2007,05,19,06,29,8.90
2007,05,19,06,30,8.90
2007,05,19,06,31,8.90
2007,05,19,06,32,8.90
2007,05,19,06,33,8.90
2007,05,19,06,34,8.90
2007,05,19,06,35,8.90
2007,05,19,06,36,8.90
2007,05,19,06,37,9.00
2007,05,19,06,38,9.00
2007,05,19,06,39,8.90
2007,05,19,06,40,9.00
2007,05,19,06,41,9.00
2007,05,19,06,42,9.00
2007,05,19,06,43,9.00
2007,05,19,06,44,9.00
2007,05,19,06,45,9.00
2007,05,19,06,46,9.00
2007,05,19,06,47,9.00
2007,05,19,06,48,9.00
2007,05,19,06,49,9.00
2007,05,19,06,50,9.00
2007,05,19,06,51,9.00
2007,05,19,06,52,9.00
2007,05,19,06,53,9.00
2007,05,19,06,54,9.10
2007,05,19,06,55,9.10
2007,05,19,06,56,9.10
2007,05,19,06,57,9.10
2007,05,19,06,58,9.10
2007,05,19,06,59,9.10
2007,05,19,07,00,9.10
2007,05,19,07,01,9.10
2007,05,19,07,02,9.10
2007,05,19,07,03,9.10
2007,05,19,07,04,9.10
2007,05,19,07,05,9.10
2007,05,19,07,06,9.10
2007,05,19,07,07,9.20
2007,05,19,07,08,9.20
2007,05,19,07,09,9.20
2007,05,19,07,10,9.20
2007,05,19,07,11,9.20
2007,05,19,07,12,9.20
2007,05,19,07,13,9.20
2007,05,19,07,14,9.20
2007,05,19,07,15,9.20
2007,05,19,07,16,9.20
2007,05,19,07,17,9.20
2007,05,19,07,18,9.20
2007,05,19,07,19,9.20
2007,05,19,07,20,9.30
2007,05,19,07,21,9.30
2007,05,19,07,22,9.20
2007,05,19,07,23,9.20
2007,05,19,07,24,9.20
2007,05,19,07,25,9.20
2007,05,19,07,26,9.20
2007,05,19,07,27,9.20
2007,05,19,07,28,9.20
2007,05,19,07,29,9.20
2007,05,19,07,30,9.20
2007,05,19,07,31,9.20
2007,05,19,07,32,9.20
2007,05,19,07,33,9.20
2007,05,19,07,34,9.10
2007,05,19,07,35,9.10
2007,05,19,07,36,9.10
2007,05,19,07,37,9.00
2007,05,19,07,38,9.00
2007,05,19,07,39,9.00
2007,05,19,07,40,9.00
2007,05,19,07,41,9.00
2007,05,19,07,42,9.00
2007,05,19,07,43,9.10
2007,05,19,07,44,9.10
2007,05,19,07,45,9.10
2007,05,19,07,46,9.10
2007,05,19,07,47,9.20
2007,05,19,07,48,9.20
2007,05,19,07,49,9.20
2007,05,19,07,50,9.20
2007,05,19,07,51,9.30
2007,05,19,07,52,9.30
2007,05,19,07,53,9.40
2007,05,19,07,54,9.40
2007,05,19,07,55,9.50
2007,05,19,07,56,9.50
2007,05,19,07,57,9.60
2007,05,19,07,58,9.60
2007,05,19,07,59,9.70
2007,05,19,08,00,9.70
2007,05,19,08,01,9.80
2007,05,19,08,02,9.90
2007,05,19,08,03,9.90
2007,05,19,08,04,10.00
2007,05,19,08,05,10.00
2007,05,19,08,06,10.10
2007,05,19,08,07,10.20
2007,05,19,08,08,10.20
2007,05,19,08,09,10.30
2007,05,19,08,10,10.30
2007,05,19,08,11,10.30
2007,05,19,08,12,10.40
2007,05,19,08,13,10.40
2007,05,19,08,14,10.50
2007,05,19,08,15,10.60
2007,05,19,08,16,10.60
2007,05,19,08,17,10.70
2007,05,19,08,18,10.70
2007,05,19,08,19,10.70
2007,05,19,08,20,10.70
2007,05,19,08,21,10.70
2007,05,19,08,22,10.70
2007,05,19,08,23,10.70
2007,05,19,08,24,10.70
2007,05,19,08,25,10.70
2007,05,19,08,26,10.70
2007,05,19,08,27,10.70
2007,05,19,08,28,10.70
2007,05,19,08,29,10.70
2007,05,19,08,30,10.80
2007,05,19,08,31,10.80
2007,05,19,08,32,10.80
2007,05,19,08,33,10.80
2007,05,19,08,34,10.80
2007,05,19,08,35,10.80
2007,05,19,08,36,10.90
2007,05,19,08,37,10.90
2007,05,19,08,38,10.90
2007,05,19,08,39,10.90
2007,05,19,08,40,10.90
2007,05,19,08,41,10.90
2007,05,19,08,42,10.90
2007,05,19,08,43,10.80
2007,05,19,08,44,10.80
2007,05,19,08,45,10.90
2007,05,19,08,46,10.90
2007,05,19,08,47,11.00
2007,05,19,08,48,11.00
2007,05,19,08,49,11.10
2007,05,19,08,50,11.10
2007,05,19,08,51,11.10
2007,05,19,08,52,11.10
2007,05,19,08,53,11.10
2007,05,19,08,54,11.10
2007,05,19,08,55,11.10
2007,05,19,08,56,11.20
2007,05,19,08,57,11.20
2007,05,19,08,58,11.10
2007,05,19,08,59,11.10
2007,05,19,09,00,11.10
2007,05,19,09,01,11.10
2007,05,19,09,02,11.20
2007,05,19,09,03,11.20
2007,05,19,09,04,11.20
2007,05,19,09,05,11.20
2007,05,19,09,06,11.20
2007,05,19,09,07,11.20
2007,05,19,09,08,11.20
2007,05,19,09,09,11.20
2007,05,19,09,10,11.20
2007,05,19,09,11,11.20
2007,05,19,09,12,11.30
2007,05,19,09,13,11.30
2007,05,19,09,14,11.30
2007,05,19,09,15,11.30
2007,05,19,09,16,11.30
2007,05,19,09,17,11.30
2007,05,19,09,18,11.40
2007,05,19,09,19,11.40
2007,05,19,09,20,11.40
2007,05,19,09,21,11.40
2007,05,19,09,22,11.40
2007,05,19,09,23,11.30
2007,05,19,09,24,11.30
2007,05,19,09,25,11.40
2007,05,19,09,26,11.40
2007,05,19,09,27,11.50
2007,05,19,09,28,11.60
2007,05,19,09,29,11.60
2007,05,19,09,30,11.70
2007,05,19,09,31,11.70
2007,05,19,09,32,11.80
2007,05,19,09,33,11.80
2007,05,19,09,34,11.80
2007,05,19,09,35,11.80
2007,05,19,09,36,11.80
2007,05,19,09,37,11.70
2007,05,19,09,38,11.80
2007,05,19,09,39,11.80
2007,05,19,09,40,11.80
2007,05,19,09,41,11.90
2007,05,19,09,42,11.90
2007,05,19,09,43,12.00
2007,05,19,09,44,12.10
2007,05,19,09,45,12.10
2007,05,19,09,46,12.20
2007,05,19,09,47,12.20
2007,05,19,09,48,12.20
2007,05,19,09,49,12.30
2007,05,19,09,50,12.30
2007,05,19,09,51,12.30
2007,05,19,09,52,12.40
2007,05,19,09,53,12.30
2007,05,19,09,54,12.30
2007,05,19,09,55,12.30
2007,05,19,09,56,12.20
2007,05,19,09,57,12.20
2007,05,19,09,58,12.20
2007,05,19,09,59,12.30
2007,05,19,10,00,12.30
2007,05,19,10,01,12.30
2007,05,19,10,02,12.30
2007,05,19,10,03,12.30
2007,05,19,10,04,12.30
2007,05,19,10,05,12.20
2007,05,19,10,06,12.30
2007,05,19,10,07,12.30
2007,05,19,10,08,12.30
2007,05,19,10,09,12.30
2007,05,19,10,10,12.40
2007,05,19,10,11,12.40
2007,05,19,10,12,12.40
2007,05,19,10,13,12.50
2007,05,19,10,14,12.50
2007,05,19,10,15,12.50
2007,05,19,10,16,12.60
2007,05,19,10,17,12.60
2007,05,19,10,18,12.70
2007,05,19,10,19,12.70
2007,05,19,10,20,12.70
2007,05,19,10,21,12.50
2007,05,19,10,22,12.40
2007,05,19,10,23,12.50
2007,05,19,10,24,12.50
2007,05,19,10,25,12.60
2007,05,19,10,26,12.70
2007,05,19,10,27,12.80
2007,05,19,10,28,12.90
2007,05,19,10,29,13.00
2007,05,19,10,30,13.10
2007,05,19,10,31,13.10
2007,05,19,10,32,13.00
2007,05,19,10,33,13.00
2007,05,19,10,34,13.00
2007,05,19,10,35,13.00
2007,05,19,10,36,12.90
2007,05,19,10,37,12.90
2007,05,19,10,38,12.90
2007,05,19,10,39,12.90
2007,05,19,10,40,12.80
2007,05,19,10,41,12.80
2007,05,19,10,42,12.90
2007,05,19,10,43,12.90
2007,05,19,10,44,13.00
2007,05,19,10,45,13.00
2007,05,19,10,46,13.00
2007,05,19,10,47,12.90
2007,05,19,10,48,12.80
2007,05,19,10,49,12.80
2007,05,19,10,50,12.90
2007,05,19,10,51,12.90
2007,05,19,10,52,12.90
2007,05,19,10,53,12.90
2007,05,19,10,54,12.80
2007,05,19,10,55,12.80
2007,05,19,10,56,12.80
2007,05,19,10,57,12.80
2007,05,19,10,58,12.70
2007,05,19,10,59,12.70
2007,05,19,11,00,12.70
2007,05,19,11,01,12.80
2007,05,19,11,02,12.80
2007,05,19,11,03,12.80
2007,05,19,11,04,12.80
2007,05,19,11,05,12.80
2007,05,19,11,06,12.80
2007,05,19,11,07,12.80
2007,05,19,11,08,12.80
2007,05,19,11,09,12.80
2007,05,19,11,10,12.80
2007,05,19,11,11,12.90
2007,05,19,11,12,13.00
2007,05,19,11,13,13.10
2007,05,19,11,14,13.20
2007,05,19,11,15,13.20
2007,05,19,11,16,13.20
2007,05,19,11,17,13.20
2007,05,19,11,18,13.10
2007,05,19,11,19,13.10
2007,05,19,11,20,13.20
2007,05,19,11,21,13.30
2007,05,19,11,22,13.40
2007,05,19,11,23,13.40
2007,05,19,11,24,13.40
2007,05,19,11,25,13.40
2007,05,19,11,26,13.50
2007,05,19,11,27,13.60
2007,05,19,11,28,13.60
2007,05,19,11,29,13.60
2007,05,19,11,30,13.60
2007,05,19,11,31,13.50
2007,05,19,11,32,13.50
2007,05,19,11,33,13.50
2007,05,19,11,34,13.50
2007,05,19,11,35,13.40
2007,05,19,11,36,13.40
2007,05,19,11,37,13.50
2007,05,19,11,38,13.50
2007,05,19,11,39,13.50
2007,05,19,11,40,13.60
2007,05,19,11,41,13.70
2007,05,19,11,42,13.80
2007,05,19,11,43,13.90
2007,05,19,11,44,14.00
2007,05,19,11,45,14.00
2007,05,19,11,46,14.00
2007,05,19,11,47,13.90
2007,05,19,11,48,13.80
2007,05,19,11,49,13.70
2007,05,19,11,50,13.60
2007,05,19,11,51,13.60
2007,05,19,11,52,13.50
2007,05,19,11,53,13.40
2007,05,19,11,54,13.30
2007,05,19,11,55,13.20
2007,05,19,11,56,13.20
2007,05,19,11,57,13.00
2007,05,19,11,58,13.00
2007,05,19,11,59,13.00
2007,05,19,12,00,13.00
2007,05,19,12,01,13.00
2007,05,19,12,02,13.00
2007,05,19,12,03,13.10
2007,05,19,12,04,13.10
2007,05,19,12,05,13.10
2007,05,19,12,06,13.10
2007,05,19,12,07,13.00
2007,05,19,12,08,12.90
2007,05,19,12,09,12.80
2007,05,19,12,10,12.70
2007,05,19,12,11,12.60
2007,05,19,12,12,12.60
2007,05,19,12,13,12.60
2007,05,19,12,14,12.70
2007,05,19,12,15,12.70
2007,05,19,12,16,12.70
2007,05,19,12,17,12.70
2007,05,19,12,18,12.70
2007,05,19,12,19,12.70
2007,05,19,12,20,12.70
2007,05,19,12,21,12.60
2007,05,19,12,22,12.60
2007,05,19,12,23,12.40
2007,05,19,12,24,12.30
2007,05,19,12,25,12.30
2007,05,19,12,26,12.30
2007,05,19,12,27,12.30
2007,05,19,12,28,12.20
2007,05,19,12,29,12.20
2007,05,19,12,30,12.20
2007,05,19,12,31,12.20
2007,05,19,12,32,12.20
2007,05,19,12,33,12.20
2007,05,19,12,34,12.20
2007,05,19,12,35,12.30
2007,05,19,12,36,12.30
2007,05,19,12,37,12.30
2007,05,19,12,38,12.40
2007,05,19,12,39,12.50
2007,05,19,12,40,12.60
2007,05,19,12,41,12.70
2007,05,19,12,42,12.80
2007,05,19,12,43,12.80
2007,05,19,12,44,12.80
2007,05,19,12,45,12.80
2007,05,19,12,46,12.80
2007,05,19,12,47,12.80
2007,05,19,12,48,12.80
2007,05,19,12,49,12.80
2007,05,19,12,50,12.80
2007,05,19,12,51,12.70
2007,05,19,12,52,12.60
2007,05,19,12,53,12.50
2007,05,19,12,54,12.40
2007,05,19,12,55,12.40
2007,05,19,12,56,12.30
2007,05,19,12,57,12.20
2007,05,19,12,58,12.20
2007,05,19,12,59,12.10
2007,05,19,13,00,12.00
2007,05,19,13,01,11.90
2007,05,19,13,02,11.80
2007,05,19,13,03,11.70
2007,05,19,13,04,11.70
2007,05,19,13,05,11.60
2007,05,19,13,06,11.60
2007,05,19,13,07,11.60
2007,05,19,13,08,11.60
2007,05,19,13,09,11.50
2007,05,19,13,10,11.50
2007,05,19,13,11,11.50
2007,05,19,13,12,11.50
2007,05,19,13,13,11.60
2007,05,19,13,14,11.60
2007,05,19,13,15,11.60
2007,05,19,13,16,11.60
2007,05,19,13,17,11.50
2007,05,19,13,18,11.50
2007,05,19,13,19,11.40
2007,05,19,13,20,11.30
2007,05,19,13,21,11.30
2007,05,19,13,22,11.30
2007,05,19,13,23,11.20
2007,05,19,13,24,11.20
2007,05,19,13,25,11.20
2007,05,19,13,26,11.10
2007,05,19,13,27,11.10
2007,05,19,13,28,11.10
2007,05,19,13,29,11.10
2007,05,19,13,30,11.10
2007,05,19,13,31,11.10
2007,05,19,13,32,11.10
2007,05,19,13,33,11.10
2007,05,19,13,34,11.10
2007,05,19,13,35,11.10
2007,05,19,13,36,11.10
2007,05,19,13,37,11.10
2007,05,19,13,38,11.10
2007,05,19,13,39,11.20
2007,05,19,13,40,11.20
2007,05,19,13,41,11.30
2007,05,19,13,42,11.30
2007,05,19,13,43,11.40
2007,05,19,13,44,11.40
2007,05,19,13,45,11.50
2007,05,19,13,46,11.60
2007,05,19,13,47,11.70
2007,05,19,13,48,11.80
2007,05,19,13,49,11.90
2007,05,19,13,50,11.90
2007,05,19,13,51,12.00
2007,05,19,13,52,12.10
2007,05,19,13,53,12.20
2007,05,19,13,54,12.30
2007,05,19,13,55,12.40
2007,05,19,13,56,12.50
2007,05,19,13,57,12.50
2007,05,19,13,58,12.60
2007,05,19,13,59,12.60
2007,05,19,14,00,12.60
2007,05,19,14,01,12.80
2007,05,19,14,02,12.80
2007,05,19,14,03,13.00
2007,05,19,14,04,13.10
2007,05,19,14,05,13.30
2007,05,19,14,06,13.40
2007,05,19,14,07,13.50
2007,05,19,14,08,13.60
2007,05,19,14,09,13.70
2007,05,19,14,10,13.70
2007,05,19,14,11,13.80
2007,05,19,14,12,13.90
2007,05,19,14,13,14.00
2007,05,19,14,14,14.10
2007,05,19,14,15,14.10
2007,05,19,14,16,14.10
2007,05,19,14,17,14.10
2007,05,19,14,18,14.10
2007,05,19,14,19,14.10
2007,05,19,14,20,14.00
2007,05,19,14,21,14.00
2007,05,19,14,22,13.90
2007,05,19,14,23,13.80
2007,05,19,14,24,13.70
2007,05,19,14,25,13.60
2007,05,19,14,26,13.50
2007,05,19,14,27,13.40
2007,05,19,14,28,13.30
2007,05,19,14,29,13.30
2007,05,19,14,30,13.20
2007,05,19,14,31,13.10
2007,05,19,14,32,13.00
2007,05,19,14,33,13.00
2007,05,19,14,34,12.90
2007,05,19,14,35,12.90
2007,05,19,14,36,12.80
2007,05,19,14,37,12.70
2007,05,19,14,38,12.70
2007,05,19,14,39,12.70
2007,05,19,14,40,12.70
2007,05,19,14,41,12.70
2007,05,19,14,42,12.80
2007,05,19,14,43,12.80
2007,05,19,14,44,12.70
2007,05,19,14,45,12.60
2007,05,19,14,46,12.60
2007,05,19,14,47,12.50
2007,05,19,14,48,12.50
2007,05,19,14,49,12.40
2007,05,19,14,50,12.30
2007,05,19,14,51,12.20
2007,05,19,14,52,12.10
2007,05,19,14,53,11.90
2007,05,19,14,54,11.80
2007,05,19,14,55,11.70
2007,05,19,14,56,11.70
2007,05,19,14,57,11.60
2007,05,19,14,58,11.60
2007,05,19,14,59,11.50
2007,05,19,15,00,11.50
2007,05,19,15,01,11.40
2007,05,19,15,02,11.40
2007,05,19,15,03,11.40
2007,05,19,15,04,11.40
2007,05,19,15,05,11.40
2007,05,19,15,06,11.40
2007,05,19,15,07,11.40
2007,05,19,15,08,11.40
2007,05,19,15,09,11.40
2007,05,19,15,10,11.40
2007,05,19,15,11,11.50
2007,05,19,15,12,11.50
2007,05,19,15,13,11.50
2007,05,19,15,14,11.60
2007,05,19,15,15,11.60
2007,05,19,15,16,11.60
2007,05,19,15,17,11.70
2007,05,19,15,18,11.70
2007,05,19,15,19,11.80
2007,05,19,15,20,11.80
2007,05,19,15,21,11.80
2007,05,19,15,22,11.80
2007,05,19,15,23,11.90
2007,05,19,15,24,11.90
2007,05,19,15,25,11.90
2007,05,19,15,26,11.90
2007,05,19,15,27,11.90
2007,05,19,15,28,11.90
2007,05,19,15,29,11.90
2007,05,19,15,30,11.90
2007,05,19,15,31,11.90
2007,05,19,15,32,11.90
2007,05,19,15,33,11.80
2007,05,19,15,34,11.80
2007,05,19,15,35,11.90
2007,05,19,15,36,11.90
2007,05,19,15,37,11.90
2007,05,19,15,38,11.90
2007,05,19,15,39,11.90
2007,05,19,15,40,12.00
2007,05,19,15,41,12.00
2007,05,19,15,42,12.00
2007,05,19,15,43,12.00
2007,05,19,15,44,12.10
2007,05,19,15,45,12.10
2007,05,19,15,46,12.10
2007,05,19,15,47,12.10
2007,05,19,15,48,12.10
2007,05,19,15,49,12.10
2007,05,19,15,50,12.10
2007,05,19,15,51,12.00
2007,05,19,15,52,12.00
2007,05,19,15,53,12.00
2007,05,19,15,54,11.90
2007,05,19,15,55,11.80
2007,05,19,15,56,11.80
2007,05,19,15,57,11.70
2007,05,19,15,58,11.60
2007,05,19,15,59,11.60
2007,05,19,16,00,11.50
2007,05,19,16,01,11.40
2007,05,19,16,02,11.40
2007,05,19,16,03,11.30
2007,05,19,16,04,11.20
2007,05,19,16,05,11.20
2007,05,19,16,06,11.10
2007,05,19,16,07,11.10
2007,05,19,16,08,11.10
2007,05,19,16,09,11.00
2007,05,19,16,10,10.90
2007,05,19,16,11,10.90
2007,05,19,16,12,10.90
2007,05,19,16,13,10.80
2007,05,19,16,14,10.80
2007,05,19,16,15,10.80
2007,05,19,16,16,10.80
2007,05,19,16,17,10.80
2007,05,19,16,18,10.70
2007,05,19,16,19,10.70
2007,05,19,16,20,10.60
2007,05,19,16,21,10.60
2007,05,19,16,22,10.50
2007,05,19,16,23,10.40
2007,05,19,16,24,10.40
2007,05,19,16,25,10.40
2007,05,19,16,26,10.40
2007,05,19,16,27,10.30
2007,05,19,16,28,10.30
2007,05,19,16,29,10.30
2007,05,19,16,30,10.30
2007,05,19,16,31,10.30
2007,05,19,16,32,10.30
2007,05,19,16,33,10.30
2007,05,19,16,34,10.30
2007,05,19,16,35,10.30
2007,05,19,16,36,10.30
2007,05,19,16,37,10.30
2007,05,19,16,38,10.30
2007,05,19,16,39,10.30
2007,05,19,16,40,10.30
2007,05,19,16,41,10.40
2007,05,19,16,42,10.40
2007,05,19,16,43,10.40
2007,05,19,16,44,10.50
2007,05,19,16,45,10.50
2007,05,19,16,46,10.60
2007,05,19,16,47,10.70
2007,05,19,16,48,10.80
2007,05,19,16,49,10.80
2007,05,19,16,50,10.90
2007,05,19,16,51,11.00
2007,05,19,16,52,11.10
2007,05,19,16,53,11.10
2007,05,19,16,54,11.10
2007,05,19,16,55,11.20
2007,05,19,16,56,11.20
2007,05,19,16,57,11.30
2007,05,19,16,58,11.30
2007,05,19,16,59,11.30
2007,05,19,17,00,11.30
2007,05,19,17,01,11.30
2007,05,19,17,02,11.30
2007,05,19,17,03,11.30
2007,05,19,17,04,11.40
2007,05,19,17,05,11.30
2007,05,19,17,06,11.40
2007,05,19,17,07,11.30
2007,05,19,17,08,11.30
2007,05,19,17,09,11.40
2007,05,19,17,10,11.40
2007,05,19,17,11,11.40
2007,05,19,17,12,11.40
2007,05,19,17,13,11.40
2007,05,19,17,14,11.40
2007,05,19,17,15,11.40
2007,05,19,17,16,11.40
2007,05,19,17,17,11.40
2007,05,19,17,18,11.40
2007,05,19,17,19,11.40
2007,05,19,17,20,11.40
2007,05,19,17,21,11.40
2007,05,19,17,22,11.40
2007,05,19,17,23,11.40
2007,05,19,17,24,11.40
2007,05,19,17,25,11.40
2007,05,19,17,26,11.30
2007,05,19,17,27,11.30
2007,05,19,17,28,11.30
2007,05,19,17,29,11.20
2007,05,19,17,30,11.20
2007,05,19,17,31,11.10
2007,05,19,17,32,11.10
2007,05,19,17,33,11.00
2007,05,19,17,34,10.90
2007,05,19,17,35,10.90
2007,05,19,17,36,10.90
2007,05,19,17,37,10.90
2007,05,19,17,38,10.80
2007,05,19,17,39,10.80
2007,05,19,17,40,10.80
2007,05,19,17,41,10.80
2007,05,19,17,42,10.80
2007,05,19,17,43,10.80
2007,05,19,17,44,10.80
2007,05,19,17,45,10.70
2007,05,19,17,46,10.70
2007,05,19,17,47,10.70
2007,05,19,17,48,10.70
2007,05,19,17,49,10.70
2007,05,19,17,50,10.70
2007,05,19,17,51,10.70
2007,05,19,17,52,10.70
2007,05,19,17,53,10.80
2007,05,19,17,54,10.80
2007,05,19,17,55,10.80
2007,05,19,17,56,10.80
2007,05,19,17,57,10.90
2007,05,19,17,58,10.90
2007,05,19,17,59,10.90
2007,05,19,18,00,10.90
2007,05,19,18,01,11.00
2007,05,19,18,02,11.00
2007,05,19,18,03,11.10
2007,05,19,18,04,11.10
2007,05,19,18,05,11.10
2007,05,19,18,06,11.10
2007,05,19,18,07,11.10
2007,05,19,18,08,11.10
2007,05,19,18,09,11.10
2007,05,19,18,10,11.10
2007,05,19,18,11,11.10
2007,05,19,18,12,11.10
2007,05,19,18,13,11.10
2007,05,19,18,14,11.10
2007,05,19,18,15,11.10
2007,05,19,18,16,11.10
2007,05,19,18,17,11.10
2007,05,19,18,18,11.10
2007,05,19,18,19,11.10
2007,05,19,18,20,11.10
2007,05,19,18,21,11.00
2007,05,19,18,22,11.00
2007,05,19,18,23,11.00
2007,05,19,18,24,10.90
2007,05,19,18,25,10.90
2007,05,19,18,26,10.90
2007,05,19,18,27,10.90